EW4725 Weather Reports


time (UTC)temp
F
wind
direction
speed
knots
gust
knots
rain 1hr
in
rain 24hr
in
rain mn
in
humidity
%
barometer
mb
20260906025416 75 283 1.7 3.5 0.00 0.00 0.00 74 1011.6
20260906024917 75 283 1.7 2.6 0.00 0.00 0.00 74 1011.6
20260906024417 75 283 1.7 2.6 0.00 0.00 0.00 73 1011.5
20260906023916 75 283 2.6 4.3 0.00 0.00 0.00 73 1011.6
20260906023416 75 305 1.7 3.5 0.00 0.00 0.00 72 1011.6
20260906022917 75 283 1.7 3.5 0.00 0.00 0.00 72 1011.7
20260906022417 76 260 4.3 7.8 0.00 0.00 0.00 72 1011.6
20260906021916 76 283 3.5 6.1 0.00 0.00 0.00 72 1011.6
20260906021416 76 283 2.6 4.3 0.00 0.00 0.00 71 1011.6
20260906020916 76 260 4.3 7.0 0.00 0.00 0.00 70 1011.7
20260906020417 77 283 1.7 3.5 0.00 0.00 0.00 70 1011.7
20260906015917 77 283 3.5 6.1 0.00 0.00 0.00 69 1011.7
20260906015416 77 283 4.3 7.8 0.00 0.00 0.00 68 1011.7
20260906014916 77 283 2.6 4.3 0.00 0.00 0.00 67 1011.6
20260906014417 78 260 4.3 6.1 0.00 0.00 0.00 66 1011.7
20260906013936 78 283 1.7 3.5 0.00 0.00 0.00 65 1011.6
20260906013416 78 283 3.5 5.2 0.00 0.00 0.00 65 1011.6
20260906012916 78 283 4.3 7.0 0.00 0.00 0.00 65 1011.6
20260906012416 79 260 3.5 7.0 0.00 0.00 0.00 65 1011.6
20260906011916 79 305 5.2 8.7 0.00 0.00 0.00 63 1011.5
20260906011416 79 260 4.3 7.0 0.00 0.00 0.00 63 1011.4
20260906010917 79 260 4.3 7.0 0.00 0.00 0.00 63 1011.4
20260906010416 79 283 4.3 6.1 0.00 0.00 0.00 62 1011.4
20260906005917 79 283 7.0 8.7 0.00 0.00 0.00 60 1011.4
20260906005416 80 260 5.2 7.0 0.00 0.00 0.00 60 1011.5
20260906004916 80 283 5.2 7.0 0.00 0.00 0.00 58 1011.5
20260906004417 81 283 4.3 6.1 0.00 0.00 0.00 57 1011.5
20260906003916 82 283 4.3 7.0 0.00 0.00 0.00 55 1011.4
20260906003416 81 283 5.2 7.8 0.00 0.00 0.00 56 1011.4
20260906002917 82 283 4.3 7.0 0.00 0.00 0.00 55 1011.4
20260906002417 82 305 3.5 6.1 0.00 0.00 0.00 55 1011.3
20260906001917 83 283 5.2 7.8 0.00 0.00 0.00 53 1011.4
20260906001436 83 260 2.6 5.2 0.00 0.00 0.00 53 1011.3
20260906000917 84 283 5.2 6.1 0.00 0.00 0.00 52 1011.3
20260906000418 85 283 2.6 4.3 0.00 0.00 0.00 50 1011.3
20260905235916 85 283 3.5 5.2 0.00 0.00 0.00 49 1011.2
20260905235416 85 283 5.2 7.8 0.00 0.00 0.00 48 1011.2
20260905234917 86 283 6.1 10.4 0.00 0.00 0.00 47 1011.3
20260905234416 87 260 6.1 8.7 0.00 0.00 0.00 47 1011.3
20260905233936 88 283 6.1 9.6 0.00 0.00 0.00 45 1011.2
20260905233416 88 283 5.2 7.8 0.00 0.00 0.00 42 1011.2
20260905232916 88 305 1.7 5.2 0.00 0.00 0.00 41 1011.2
20260905232416 88 238 4.3 8.7 0.00 0.00 0.00 42 1011.2
20260905231916 89 0.0 0.0 0.00 0.00 0.00 40 1011.2
20260905231416 90 0.0 0.0 0.00 0.00 0.00 26 1011.2
20260905230916 91 0.0 0.0 0.00 0.00 0.00 26 1011.2
20260905230416 91 0.0 0.0 0.00 0.00 0.00 23 1011.2
20260905225916 91 0.0 0.9 0.00 0.00 0.00 21 1011.3
20260905225416 91 0.0 1.7 0.00 0.00 0.00 21 1011.4
20260905224916 91 0.0 0.0 0.00 0.00 0.00 22 1011.4
20260905224417 91 0.0 0.0 0.00 0.00 0.00 21 1011.5
20260905223916 92 215 0.9 3.5 0.00 0.00 0.00 22 1011.5
20260905223416 92 148 1.7 3.5 0.00 0.00 0.00 21 1011.6
20260905222916 91 283 3.5 4.3 0.00 0.00 0.00 21 1011.6
20260905222436 91 170 1.7 2.6 0.00 0.00 0.00 21 1011.7
20260905221917 91 148 2.6 3.5 0.00 0.00 0.00 21 1011.7
20260905221416 91 170 1.7 4.3 0.00 0.00 0.00 22 1011.7
20260905220916 91 148 2.6 5.2 0.00 0.00 0.00 22 1011.8
20260905220416 90 0.0 0.9 0.00 0.00 0.00 21 1011.9
20260905215957 90 148 4.3 5.2 0.00 0.00 0.00 22 1011.9
20260905215416 90 148 0.9 2.6 0.00 0.00 0.00 23 1012.0
20260905214916 90 215 0.9 1.7 0.00 0.00 0.00 24 1012.1
20260905214416 90 215 2.6 4.3 0.00 0.00 0.00 24 1012.2
20260905213916 90 125 2.6 3.5 0.00 0.00 0.00 25 1012.1
20260905213416 90 283 2.6 4.3 0.00 0.00 0.00 26 1012.2
20260905212916 90 125 2.6 6.1 0.00 0.00 0.00 26 1012.2
20260905212416 91 148 1.7 3.5 0.00 0.00 0.00 25 1012.2
20260905211916 90 170 0.9 3.5 0.00 0.00 0.00 27 1012.3
20260905211416 90 148 0.9 3.5 0.00 0.00 0.00 26 1012.3
20260905210916 89 148 1.7 3.5 0.00 0.00 0.00 27 1012.4
20260905210456 89 215 2.6 5.2 0.00 0.00 0.00 27 1012.4
20260905205916 90 35 0.9 1.7 0.00 0.00 0.00 27 1012.4
20260905205416 90 238 2.6 5.2 0.00 0.00 0.00 27 1012.5
20260905204916 90 305 1.7 2.6 0.00 0.00 0.00 27 1012.5
20260905204416 90 148 3.5 4.3 0.00 0.00 0.00 29 1012.5
20260905203916 90 283 1.7 5.2 0.00 0.00 0.00 28 1012.6
20260905203416 90 238 1.7 5.2 0.00 0.00 0.00 30 1012.7
20260905202916 89 148 1.7 3.5 0.00 0.00 0.00 30 1012.7
20260905202416 88 148 1.7 3.5 0.00 0.00 0.00 31 1012.7
20260905201916 88 0.0 1.7 0.00 0.00 0.00 33 1012.7
20260905201416 88 193 0.9 1.7 0.00 0.00 0.00 34 1012.8
20260905200916 88 238 0.9 1.7 0.00 0.00 0.00 34 1012.9
20260905200416 88 148 0.9 1.7 0.00 0.00 0.00 36 1012.9
20260905195936 88 215 0.9 2.6 0.00 0.00 0.00 37 1012.9
20260905195416 87 148 0.9 3.5 0.00 0.00 0.00 39 1013.0
20260905194916 87 170 1.7 3.5 0.00 0.00 0.00 39 1013.1
20260905194416 87 0.0 1.7 0.00 0.00 0.00 40 1013.3
20260905193916 88 148 2.6 5.2 0.00 0.00 0.00 39 1013.3
20260905193416 87 283 0.9 2.6 0.00 0.00 0.00 37 1013.2
20260905192916 87 283 3.5 7.8 0.00 0.00 0.00 36 1013.2
20260905192416 87 283 1.7 4.3 0.00 0.00 0.00 37 1013.4
20260905191936 87 260 1.7 3.5 0.00 0.00 0.00 36 1013.5
20260905191436 87 0.0 1.7 0.00 0.00 0.00 37 1013.5
20260905190916 86 0.0 0.9 0.00 0.00 0.00 37 1013.6
20260905190416 86 0.0 0.0 0.00 0.00 0.00 37 1013.6
20260905185916 86 125 0.9 2.6 0.00 0.00 0.00 35 1013.7
20260905185416 85 125 1.7 3.5 0.00 0.00 0.00 34 1013.7
20260905184916 85 0.0 1.7 0.00 0.00 0.00 34 1013.7
20260905184436 85 148 3.5 4.3 0.00 0.00 0.00 33 1013.9
20260905183916 85 103 1.7 2.6 0.00 0.00 0.00 31 1013.9
20260905183416 84 0.0 0.0 0.00 0.00 0.00 38 1014.0
20260905182936 83 0.0 1.7 0.00 0.00 0.00 38 1014.0
20260905182416 84 58 2.6 3.5 0.00 0.00 0.00 40 1014.1
20260905181916 83 125 0.9 1.7 0.00 0.00 0.00 42 1014.1
20260905181416 83 148 0.9 2.6 0.00 0.00 0.00 44 1014.1
20260905180936 82 0.0 0.0 0.00 0.00 0.00 47 1014.1
20260905180416 81 125 0.9 3.5 0.00 0.00 0.00 48 1014.0
20260905175936 81 58 2.6 3.5 0.00 0.00 0.00 48 1014.1
20260905175416 80 0.0 1.7 0.00 0.00 0.00 51 1014.1
20260905174916 80 125 3.5 5.2 0.00 0.00 0.00 52 1014.2
20260905174415 80 125 1.7 3.5 0.00 0.00 0.00 56 1014.1
20260905173936 80 103 1.7 1.7 0.00 0.00 0.00 57 1014.1
20260905173416 79 0.0 0.0 0.00 0.00 0.00 60 1014.1
20260905172916 79 148 2.6 4.3 0.00 0.00 0.00 61 1014.0
20260905171916 78 283 1.7 2.6 0.00 0.00 0.00 62 1014.0
20260905171416 78 0.0 0.9 0.00 0.00 0.00 63 1014.0
20260905170916 78 125 2.6 3.5 0.00 0.00 0.00 63 1014.1
20260905170416 77 0.0 0.9 0.00 0.00 0.00 65 1014.0
20260905165916 77 125 0.9 1.7 0.00 0.00 0.00 66 1014.1
20260905165416 76 0.0 0.9 0.00 0.00 0.00 68 1014.1
20260905164916 76 0.0 0.9 0.00 0.00 0.00 69 1014.1
20260905164416 76 125 1.7 4.3 0.00 0.00 0.00 71 1014.1
20260905163936 75 125 0.9 1.7 0.00 0.00 0.00 71 1014.1
20260905163415 75 0.0 0.0 0.00 0.00 0.00 73 1014.0
20260905162915 75 283 0.9 1.7 0.00 0.00 0.00 71 1014.0
20260905162415 74 0.0 0.0 0.00 0.00 0.00 75 1014.0
20260905161916 73 0.0 0.0 0.00 0.00 0.00 76 1013.9
20260905161416 73 0.0 0.9 0.00 0.00 0.00 75 1013.9
20260905160916 73 238 1.7 1.7 0.00 0.00 0.00 76 1013.9
20260905160415 73 0.0 0.9 0.00 0.00 0.00 78 1013.9
20260905155916 72 0.0 0.0 0.00 0.00 0.00 80 1014.0
20260905155416 72 305 1.7 2.6 0.00 0.00 0.00 79 1013.9
20260905154916 72 0.0 1.7 0.00 0.00 0.00 82 1013.8
20260905154416 71 0.0 0.0 0.00 0.00 0.00 82 1013.8
20260905153935 71 305 1.7 2.6 0.00 0.00 0.00 82 1013.8
20260905153416 71 0.0 0.0 0.00 0.00 0.00 83 1013.8
20260905152915 70 328 0.9 0.9 0.00 0.00 0.00 81 1013.8
20260905152415 71 13 0.9 1.7 0.00 0.00 0.00 82 1013.8
20260905151916 70 125 0.9 1.7 0.00 0.00 0.00 84 1013.7
20260905151415 70 305 1.7 2.6 0.00 0.00 0.00 83 1013.6
20260905150935 69 0.0 0.0 0.00 0.00 0.00 86 1013.6
20260905150436 68 0.0 0.0 0.00 0.00 0.00 86 1013.6
20260905145916 68 0.0 0.0 0.00 0.00 0.00 87 1013.6
20260905145415 67 350 0.9 1.7 0.00 0.00 0.00 87 1013.6
20260905144916 67 0.0 0.9 0.00 0.00 0.00 88 1013.5
20260905144415 66 0.0 0.0 0.00 0.00 0.00 89 1013.5
20260905143915 65 350 0.9 1.7 0.00 0.00 0.00 89 1013.4
20260905143415 65 0.0 0.0 0.00 0.00 0.00 90 1013.4
20260905142915 64 0.0 0.0 0.00 0.00 0.00 90 1013.4
20260905142435 64 0.0 0.0 0.00 0.00 0.00 90 1013.4
20260905141916 64 0.0 0.9 0.00 0.00 0.00 90 1013.4
20260905141415 64 0.0 0.0 0.00 0.00 0.00 90 1013.2
20260905140915 64 0.0 0.0 0.00 0.00 0.00 91 1013.2
20260905140416 64 0.0 0.0 0.00 0.00 0.00 91 1013.1
20260905135915 63 0.0 0.9 0.00 0.00 0.00 91 1013.1
20260905135415 63 0.0 0.0 0.00 0.00 0.00 91 1013.0
20260905134936 63 0.0 0.0 0.00 0.00 0.00 91 1013.0
20260905134455 63 0.0 0.9 0.00 0.00 0.00 92 1012.9
20260905133916 63 0.0 0.9 0.00 0.00 0.00 92 1012.9
20260905133415 62 0.0 0.0 0.00 0.00 0.00 91 1012.9
20260905132916 62 0.0 0.0 0.00 0.00 0.00 90 1012.8
20260905132415 63 0.0 0.0 0.00 0.00 0.00 90 1012.8
20260905131956 63 0.0 0.0 0.00 0.00 0.00 90 1012.8
20260905131415 63 0.0 0.0 0.00 0.00 0.00 91 1012.7
20260905130915 63 0.0 0.0 0.00 0.00 0.00 90 1012.6
20260905130415 64 0.0 0.0 0.00 0.00 0.00 90 1012.6
20260905125936 64 0.0 0.9 0.00 0.00 0.00 90 1012.6
20260905125415 64 0.0 0.0 0.00 0.00 0.00 90 1012.6
20260905124915 64 0.0 0.0 0.00 0.00 0.00 91 1012.6
20260905124415 64 0.0 0.0 0.00 0.00 0.00 91 1012.6
20260905123915 64 0.0 0.0 0.00 0.00 0.00 91 1012.6
20260905123415 64 103 0.9 1.7 0.00 0.00 0.00 91 1012.6
20260905122915 64 0.0 0.0 0.00 0.00 0.00 91 1012.5
20260905122415 64 0.0 0.0 0.00 0.00 0.00 91 1012.6
20260905121915 64 0.0 0.0 0.00 0.00 0.00 90 1012.7
20260905121415 64 0.0 0.0 0.00 0.00 0.00 90 1012.7
20260905120915 64 0.0 0.0 0.00 0.00 0.00 90 1012.7
20260905120415 65 0.0 0.0 0.00 0.00 0.00 90 1012.6
20260905115915 65 0.0 0.0 0.00 0.00 0.00 90 1012.7
20260905115415 65 0.0 0.0 0.00 0.00 0.00 91 1012.6
20260905114915 65 0.0 0.0 0.00 0.00 0.00 91 1012.6
20260905114417 65 0.0 0.0 0.00 0.00 0.00 90 1012.6
20260905113917 65 0.0 0.0 0.00 0.00 0.00 91 1012.6
20260905113435 65 0.0 0.0 0.00 0.00 0.00 91 1012.7
20260905112917 65 0.0 0.0 0.00 0.00 0.00 91 1012.7
20260905112417 65 0.0 0.9 0.00 0.00 0.00 91 1012.8
20260905111917 65 0.0 0.0 0.00 0.00 0.00 91 1012.8
20260905111417 65 0.0 0.0 0.00 0.00 0.00 90 1012.8
20260905110917 65 0.0 0.0 0.00 0.00 0.00 90 1012.8
20260905110417 66 0.0 0.0 0.00 0.00 0.00 91 1012.8
20260905105917 66 0.0 0.9 0.00 0.00 0.00 91 1012.9
20260905105417 66 103 0.9 1.7 0.00 0.00 0.00 91 1012.8
20260905104917 66 0.0 0.9 0.00 0.00 0.00 90 1012.8
20260905104417 66 0.0 0.0 0.00 0.00 0.00 90 1012.8
20260905103917 66 0.0 0.9 0.00 0.00 0.00 90 1012.7
20260905103417 66 103 0.9 1.7 0.00 0.00 0.00 90 1012.8
20260905102917 66 0.0 0.9 0.00 0.00 0.00 90 1012.8
20260905102417 66 125 1.7 1.7 0.00 0.00 0.00 90 1012.9
20260905101917 66 0.0 0.0 0.00 0.00 0.00 90 1012.8
20260905101417 66 0.0 0.9 0.00 0.00 0.00 90 1012.9
20260905100917 66 103 0.9 0.9 0.00 0.00 0.00 91 1012.9
20260905100417 66 0.0 0.9 0.00 0.00 0.00 91 1012.9
20260905095917 66 0.0 0.9 0.00 0.00 0.00 91 1012.9
20260905095417 66 0.0 0.0 0.00 0.00 0.00 91 1012.9
20260905094917 66 0.0 0.9 0.00 0.00 0.00 91 1013.0
20260905094417 66 0.0 0.0 0.00 0.00 0.00 91 1012.9
20260905093937 66 0.0 0.0 0.00 0.00 0.00 90 1012.9
20260905093417 67 0.0 0.0 0.00 0.00 0.00 90 1012.9
20260905092917 67 0.0 0.0 0.00 0.00 0.00 90 1012.8
20260905092415 67 0.0 0.0 0.00 0.00 0.00 90 1012.8
20260905091917 67 0.0 0.0 0.00 0.00 0.00 90 1012.8
20260905091417 67 0.0 0.9 0.00 0.00 0.00 90 1012.9
20260905090917 67 125 0.9 1.7 0.00 0.00 0.00 90 1012.9
20260905090417 67 125 0.9 1.7 0.00 0.00 0.00 90 1012.9
20260905085917 67 0.0 0.0 0.00 0.00 0.00 90 1012.9
20260905085437 67 0.0 0.0 0.00 0.00 0.00 90 1012.9
20260905084917 67 0.0 0.0 0.00 0.00 0.00 90 1012.9
20260905084417 67 0.0 0.0 0.00 0.00 0.00 90 1012.9
20260905083917 67 0.0 0.9 0.00 0.00 0.00 90 1013.0
20260905083417 67 125 0.9 1.7 0.00 0.00 0.00 90 1013.0
20260905082957 67 0.0 0.0 0.00 0.00 0.00 89 1013.0
20260905082417 67 0.0 0.0 0.00 0.00 0.00 89 1013.1
20260905081917 67 103 0.9 0.9 0.00 0.00 0.00 90 1013.1
20260905081517 67 125 0.9 2.6 0.00 0.00 0.00 90 1013.2
20260905080937 67 0.0 0.0 0.00 0.00 0.00 90 1013.2
20260905080417 67 0.0 0.0 0.00 0.00 0.00 90 1013.3
20260905075917 67 0.0 0.9 0.00 0.00 0.00 90 1013.3
20260905075417 67 0.0 0.0 0.00 0.00 0.00 90 1013.2
20260905074917 67 0.0 0.9 0.00 0.00 0.00 90 1013.3
20260905074417 67 0.0 0.0 0.00 0.00 0.00 90 1013.3
20260905073917 67 0.0 0.0 0.00 0.00 0.00 91 1013.2
20260905073417 67 125 0.9 0.9 0.00 0.00 0.00 91 1013.2
20260905072917 66 0.0 0.0 0.00 0.00 0.00 91 1013.2
20260905072417 66 0.0 0.0 0.00 0.00 0.00 91 1013.1
20260905071917 66 0.0 0.0 0.00 0.00 0.00 90 1013.0
20260905071416 67 0.0 0.0 0.00 0.00 0.00 90 1013.1
20260905070917 67 0.0 0.0 0.00 0.00 0.00 90 1013.1
20260905070437 67 0.0 0.0 0.00 0.00 0.00 90 1013.1
20260905065915 66 0.0 0.0 0.00 0.00 0.00 90 1013.1
20260905065437 66 0.0 0.0 0.00 0.00 0.00 89 1013.0
20260905064917 67 0.0 0.0 0.00 0.00 0.00 89 1013.0
20260905064437 67 0.0 0.0 0.00 0.00 0.00 89 1013.0
20260905063917 67 0.0 0.0 0.00 0.00 0.00 89 1013.1
20260905063437 67 0.0 0.0 0.00 0.00 0.00 89 1013.1
20260905062917 67 0.0 0.0 0.00 0.00 0.00 89 1013.0
20260905062415 67 0.0 0.0 0.00 0.00 0.00 88 1013.0
20260905061917 68 0.0 0.0 0.00 0.00 0.00 88 1013.1
20260905061417 68 0.0 0.0 0.00 0.00 0.00 88 1013.0
20260905060917 68 0.0 0.0 0.00 0.00 0.00 87 1013.0
20260905060415 68 0.0 0.0 0.00 0.00 0.00 87 1012.9
20260905055917 68 0.0 0.0 0.00 0.00 0.00 87 1012.9
20260905055417 68 0.0 0.0 0.00 0.00 0.00 87 1013.0
20260905054917 69 260 0.9 1.7 0.00 0.00 0.00 87 1012.9
20260905054417 69 0.0 0.0 0.00 0.00 0.00 87 1012.9
20260905053917 69 305 3.5 4.3 0.00 0.00 0.00 87 1012.8
20260905053417 69 0.0 0.0 0.00 0.00 0.00 87 1012.8
20260905052917 69 283 0.9 2.6 0.00 0.00 0.00 87 1012.8
20260905052417 69 283 0.9 3.5 0.00 0.00 0.00 87 1012.8
20260905051917 69 0.0 1.7 0.00 0.00 0.00 87 1012.8
20260905051417 69 283 0.9 1.7 0.00 0.00 0.00 87 1012.9
20260905050937 69 0.0 0.9 0.00 0.00 0.00 86 1012.9
20260905050417 69 283 0.9 2.6 0.00 0.00 0.00 87 1013.0
20260905045917 69 260 2.6 4.3 0.00 0.00 0.00 86 1012.9
20260905045437 69 305 1.7 2.6 0.00 0.00 0.00 86 1012.9
20260905044937 69 260 0.9 1.7 0.00 0.00 0.00 86 1012.8
20260905044417 69 283 1.7 2.6 0.00 0.00 0.00 85 1012.8
20260905043917 69 305 2.6 3.5 0.00 0.00 0.00 85 1012.7
20260905043417 69 283 1.7 2.6 0.00 0.00 0.00 85 1012.7
20260905042917 69 0.0 0.9 0.00 0.00 0.00 84 1012.6
20260905042417 69 260 0.9 1.7 0.00 0.00 0.00 84 1012.5
20260905041917 69 0.0 1.7 0.00 0.00 0.00 84 1012.6
20260905041437 69 0.0 0.9 0.00 0.00 0.00 84 1012.5
20260905040917 69 260 2.6 4.3 0.00 0.00 0.00 84 1012.4
20260905040417 70 260 0.9 1.7 0.00 0.00 0.00 84 1012.3
20260905035937 70 260 1.7 2.6 0.00 0.00 0.00 84 1012.3
20260905035517 70 283 2.6 3.5 0.00 0.00 0.00 83 1012.3
20260905034917 70 283 1.7 3.5 0.00 0.00 0.00 83 1012.1
20260905034417 70 260 1.7 2.6 0.00 0.00 0.00 83 1012.1
20260905033917 70 283 3.5 5.2 0.00 0.00 0.00 83 1012.1
20260905033417 70 260 3.5 5.2 0.00 0.00 0.00 83 1012.0
20260905033017 70 283 3.5 7.0 0.00 0.00 0.00 82 1012.0
20260905032417 70 283 1.7 4.3 0.00 0.00 0.00 82 1012.0
20260905031917 70 283 3.5 6.1 0.00 0.00 0.00 82 1011.9
20260905031437 70 283 3.5 4.3 0.00 0.00 0.00 82 1011.9
20260905030917 70 283 3.5 5.2 0.00 0.00 0.00 81 1011.9
20260905030417 70 260 1.7 1.7 0.00 0.00 0.00 81 1011.8
20260905025917 71 260 4.3 7.0 0.00 0.00 0.00 80 1011.7